Weather History for Youngstown, OH

Change the Weather History Date:

Monday, April 7, 2014

  Actual Average Record
Temperature  
Mean Temperature 47 °F 45 °F  
Max Temperature 52 °F 56 °F 81 °F (1991)
Min Temperature 41 °F 35 °F 18 °F (1972)
Degree Days  
Heating Degree Days 18 20  
Month to date heating degree days 131 147  
Since 1 July heating degree days 6277 5671  
Cooling Degree Days 0 0  
Month to date cooling degree days 0 0  
Year to date cooling degree days 0 1  
Moisture  
Dew Point 35 °F    
Average Humidity 70    
Maximum Humidity 96    
Minimum Humidity 44    
Precipitation  
Precipitation 0.50 in 0.12 in 0.70 in (1956)
Month to date precipitation 1.48 0.81  
Year to date precipitation 8.11 8.45  
Snow  
Snow 0.00 in 0.20 in - ()
Month to date snowfall T 1.3  
Since 1 July snowfall 88.9 61.0  
Snow Depth 0.00 in    
Sea Level Pressure  
Sea Level Pressure 29.70 in    
Wind  
Wind Speed 11 mph (ESE)    
Max Wind Speed 17 mph    
Max Gust Speed 23 mph    
Visibility 7 miles    
Events Rain , Thunderstorm    
T = Trace of Precipitation, MM = Missing Value Source: NWS Daily Summary

Daily Weather History Graph

Daily Weather History Graph

Search for Another Location

Airport:

Trip Planner

Search our weather history database for the weather conditions in past years. The results will help you decide how hot, cold, wet, or windy it might be!

Date:

Astronomy

Apr. 07, 2014 Rise Set
Actual Time 6:56 AM EDT 7:54 PM EDT
Civil Twilight 6:27 AM EDT 8:22 PM EDT
Nautical Twilight 5:54 AM EDT 8:56 PM EDT
Astronomical Twilight 5:19 AM EDT 9:31 PM EDT
Moon 12:49 PM EDT (4/7) 2:32 AM EDT (4/7)
Length of Visible Light 13h 54m
Length of Day
12h 58m
First Quarter, 53% of the Moon is Illuminated
Apr 7
First Quarter
Apr 15
Full
Apr 22
Last Quarter
Apr 29
New
May 6
First Quarter

Hourly Weather History & Observations

Time (EDT) Temp. Windchill Dew Point Humidity Pressure Visibility Wind Dir Wind Speed Gust Speed Precip Events Conditions
12:51 AM 42.1 °F 37.1 °F 23.0 °F 47% 30.01 in 10.0 mi ESE 8.1 mph - N/A   Scattered Clouds
1:51 AM 43.0 °F 38.2 °F 23.0 °F 45% 29.99 in 10.0 mi ESE 8.1 mph - N/A   Mostly Cloudy
2:51 AM 43.0 °F 37.7 °F 23.0 °F 45% 29.98 in 10.0 mi ESE 9.2 mph - N/A   Overcast
3:51 AM 43.0 °F 37.7 °F 23.0 °F 45% 29.96 in 10.0 mi ESE 9.2 mph - N/A   Overcast
4:51 AM 43.0 °F 37.2 °F 24.1 °F 47% 29.92 in 10.0 mi ESE 10.4 mph - N/A   Overcast
5:51 AM 43.0 °F 37.7 °F 24.1 °F 47% 29.92 in 10.0 mi ESE 9.2 mph - N/A   Overcast
6:54 AM 43.0 °F 36.8 °F 24.1 °F 47% 29.92 in 10.0 mi ESE 11.5 mph - N/A   Overcast
7:51 AM 44.1 °F 38.6 °F 26.1 °F 49% 29.91 in 10.0 mi ESE 10.4 mph - N/A   Overcast
8:51 AM 45.0 °F 39.7 °F 27.0 °F 49% 29.90 in 10.0 mi ESE 10.4 mph - N/A   Overcast
9:51 AM 48.0 °F - 28.0 °F 46% 29.86 in 10.0 mi ESE 9.2 mph - N/A   Overcast
10:51 AM 48.9 °F - 28.9 °F 46% 29.83 in 10.0 mi ESE 12.7 mph - N/A   Overcast
11:51 AM 51.1 °F - 30.0 °F 44% 29.82 in 10.0 mi East 11.5 mph - N/A   Overcast
12:51 PM 52.0 °F - 33.1 °F 49% 29.78 in 10.0 mi ESE 17.3 mph - 0.00 in Rain Light Rain
1:51 PM 48.9 °F - 39.0 °F 69% 29.75 in 9.0 mi ESE 16.1 mph 20.7 mph 0.00 in Rain Light Rain
2:14 PM 46.4 °F 39.5 °F 44.6 °F 93% 29.75 in 2.0 mi SE 17.3 mph 21.9 mph N/A Rain Rain
2:41 PM 46.4 °F 40.4 °F 42.8 °F 87% 29.70 in 2.5 mi East 13.8 mph 21.9 mph N/A Rain Light Rain
2:51 PM 46.0 °F 39.6 °F 43.0 °F 89% 29.72 in 2.5 mi East 15.0 mph 23.0 mph 0.04 in Rain Light Rain
3:51 PM 44.6 °F 38.1 °F 42.8 °F 93% 29.63 in 2.0 mi East 13.8 mph - N/A Rain Light Rain
4:12 PM 44.6 °F 38.4 °F 41.0 °F 87% 29.63 in 1.0 mi East 12.7 mph - 0.00 in Rain Light Rain
4:51 PM 43.0 °F 36.4 °F 41.0 °F 93% 29.59 in 1.0 mi East 12.7 mph 20.7 mph 0.06 in Rain Light Rain
5:27 PM 42.8 °F 36.2 °F 41.0 °F 93% 29.53 in 3.0 mi East 12.7 mph - 0.01 in Rain Light Rain
5:51 PM 43.0 °F 37.2 °F 41.0 °F 93% 29.56 in 7.0 mi ESE 10.4 mph - 0.02 in Rain Light Rain
6:51 PM 45.0 °F 41.2 °F 43.0 °F 93% 29.50 in 10.0 mi ESE 6.9 mph - 0.01 in   Overcast
7:44 PM 46.4 °F 41.9 °F 42.8 °F 87% 29.46 in 6.0 mi ESE 9.2 mph - 0.00 in Rain Light Rain
7:51 PM 46.0 °F 41.4 °F 43.0 °F 89% 29.47 in 2.0 mi ESE 9.2 mph - 0.01 in Rain Light Rain
8:18 PM 46.4 °F 41.1 °F 44.6 °F 93% 29.44 in 10.0 mi ESE 11.5 mph - 0.00 in   Overcast
8:51 PM 46.0 °F 41.0 °F 44.1 °F 93% 29.44 in 7.0 mi East 10.4 mph - 0.03 in Rain Light Rain
9:51 PM 46.0 °F 40.6 °F 44.1 °F 93% 29.42 in 10.0 mi ESE 11.5 mph - 0.05 in Rain Light Rain
10:51 PM 46.0 °F 39.9 °F 43.0 °F 89% 29.38 in 10.0 mi ESE 13.8 mph - 0.00 in   Overcast
11:19 PM 46.4 °F 41.9 °F 44.6 °F 93% 29.36 in 1.0 mi SSE 9.2 mph 18.4 mph 0.05 in Rain , Thunderstorm Thunderstorms and Rain
11:51 PM 46.9 °F - 45.0 °F 93% 29.37 in 3.0 mi SE 13.8 mph - 0.23 in Rain , Thunderstorm Thunderstorms and Rain